Location: Luna
(33.8188°N, 108.9564°W)
Time: 21:46:24
(UTC+00:00)

LilacSat-2 - Visible Passes

Search period start: 31 March 2023 00:00
Search period end: 10 April 2023 00:00
Orbit: 498 x 521 km, 97.5° (Epoch: 31 March)

Date Brightness Start Highest point End Pass type
(mag) Time Alt. Az. Time Alt. Az. Time Alt. Az.
01 Apr ? 12:25:03 10° NE 12:27:38 18° E 12:30:14 10° SE visible
02 Apr ? 12:09:56 10° ENE 12:10:55 11° E 12:11:53 10° ESE visible
07 Apr ? 12:19:17 10° ENE 12:21:29 15° E 12:23:42 10° SE visible
